Regional Weather Roundup
Issued by NWS Charleston, SC

Home | Current Version | Previous Version | Text Only | Print | Product List | Glossary On
Versions: 1 2 3 4 5 6 7 8 9 10 11 12 13 14 15 16 17 18 19 20 21 22 23 24 25 26 27 28 29 30 31 32 33 34 35 36 37 38 39 40 41 42 43 44 45 46 47 48 49 50
000
ASUS42 KCHS 300528
RWRCHS

REGIONAL WEATHER ROUNDUP
NATIONAL WEATHER SERVICE CHARLESTON SC
100 AM EDT SAT APR 30 2016

NOTE: "FAIR" INDICATES FEW OR NO CLOUDS BELOW 12,000 FEET WITH NO
SIGNIFICANT WEATHER AND/OR OBSTRUCTIONS TO VISIBILITY.

NOT ALL STATIONS ARE QUALITY CONTROLLED. USE DATA WITH CAUTION...
ESPECIALLY DEWPOINT OBSERVATIONS.

SCZ027-030-031-034>040-042>050-300600-
...SOUTHEAST SOUTH CAROLINA...

CITY           SKY/WX    TMP DP  RH WIND       PRES   REMARKS
N CHARLESTON   PTCLDY    70  67  90 S6        29.98S
WATERFRONT PRK   N/A     71  70  96 VRB3      29.97S
MOUNT PLEASANT FAIR      66  66 100 CALM      29.99F FOG
JOHNS ISLAND   FAIR      70  70 100 E5        29.99S FOG
PINOPOLIS        N/A     72  68  88 CALM      29.93R
MONCKS CORNER  CLOUDY    64  63  94 CALM      30.00S FOG
SUMMERVILLE    CLOUDY    70  70 100 CALM      30.00S FOG
BEAUFORT MCAS  PTCLDY    73  70  90 SE5       29.98S
BEAUFORT ARPT  FAIR      72  70  94 SE3       29.98S FOG
HILTON HEAD IS PTCLDY    72  72 100 CALM      29.99F FOG
WALTERBORO     FOG       70  70 100 SE3       30.00S VSB 1/2
ALLENDALE      FAIR      70  66  88 CALM      29.98S

...SOUTHERN MIDLANDS AND PEE DEE...

CITY           SKY/WX    TMP DP  RH WIND       PRES   REMARKS
GEORGETOWN     FAIR      64  64 100 CALM      30.01S
KINGSTREE      FAIR      66  63  88 CALM      30.01R FOG
ORANGEBURG     PTCLDY    69  63  81 CALM      30.00R
BARNWELL       FAIR      70  66  88 CALM      29.99F
AIKEN          FAIR      64  57  77 CALM      30.02S
MANNING        NOT AVBL
COLUMBIA       PTCLDY    74  60  61 S5        29.98R
SUMTER         CLOUDY    70  64  80 S3        29.97R
FLORENCE       CLOUDY    67  65  93 SE5       30.01R
MYRTLE BEACH   MOCLDY    70  61  73 SE7       30.03S
N MYRTLE BEACH PTCLDY    68  64  87 SE5       30.01R

$$

GAZ063-065-086>088-099>101-113>116-118-119-134>141-150-300600-
...SOUTHEAST GEORGIA...

CITY           SKY/WX    TMP DP  RH WIND       PRES   REMARKS
SAVANNAH ARPT  CLOUDY    71  68  90 E5        29.98R
HUNTER AAF     CLEAR     71  71 100 SE3       29.95S
FORT STEWART   CLEAR     68  64  88 CALM      29.95S
STATESBORO     CLEAR     68  64  89 CALM      29.98S
SYLVANIA       PTCLDY    68  65  89 CALM      29.99S
CLAXTON        FAIR      65  63  93 CALM      29.97S

...CSRA...CENTRAL AND FAR SOUTHEAST GEORGIA...

CITY           SKY/WX    TMP DP  RH WIND       PRES   REMARKS
THOMSON        CLEAR     65  65  99 CALM      30.01F
AUGUSTA-BUSH   CLEAR     66  62  87 S3        29.98R
AUGUSTA-DANIEL CLEAR     73  61  65 SE6       29.99R
SWAINSBORO     FAIR      68  63  83 CALM      29.98S
VIDALIA        CLEAR     72  63  73 CALM      29.98R
EASTMAN        CLOUDY   N/A N/A N/A CALM      29.99S
HAZLEHURST     FAIR      73  65  77 S5        29.96R
ALMA           CLEAR     69  65  86 CALM      29.96S
WAYCROSS       CLOUDY    73  69  89 S3        29.97S
JESUP          FAIR      70  68  94 CALM      29.97F
BAXLEY         FAIR      72  66  83 CALM      29.96S
BRUNSWICK      CLEAR     77  72  83 S3        29.98S
SAINT SIMONS   PTCLDY    73  73 100 S6        29.97S

$$

SCZ027-028-034-036>038-045-046-048>050-GAZ119-141-300600-
...LAKE AND SUPPLEMENTAL COASTAL OBSERVATIONS...

STATION/POSITION TIME  TEMP    WIND        PRES    WAVE   SWELL
                       AIR SEA DIR/SP/G            HT/PER HT/PER/DIR
                 (UTC) (F)     (DEG/KT/KT) (MB)    (FT/S) (FT/S/D)
WINYAH BAY       0400   71     130/  5     1015.0S
LAKE MURRAY      0500   75     160/  6/  9 1014.6S
ACE BASIN NERRS  0400   70        CALM     1016.0S
FORT PULASKI     0500   72 72  120/  4/  5 1015.4R
SAPELO ISLAND    0500   73     150/  2     1015.0S

$$

ANZ835-935-AMZ111-154-330-350-352-354-370-450-454-472-300600-
...C-MAN AND BUOY OBSERVATIONS...

STATION/POSITION TIME  TEMP    WIND        PRES    WAVE   SWELL
                       AIR SEA DIR/SP/G            HT/PER HT/PER/DIR
                 (UTC) (F)     (DEG/KT/KT) (MB)    (FT/S) (FT/S/D)
BUOY 41004       0450   74 73  130/  8/  8 1015.1S   2/ 9   2/ 9
BUOY 41008       NOT AVBL
FOLLY BEACH CMAN 0500   71     120/  4/  4 1015.6F
CAPERS NEARSHORE 0508   70 71  140/  4/  6 1015.1F
FRIPP NEARSHORE  0508   72 71  160/  6/  8 1014.6S


STATION/POSITION TIME  TEMP    WIND        PRES    WAVE   SWELL
                       AIR SEA DIR/SP/G            HT/PER HT/PER/DIR
                 (UTC) (F)     (DEG/KT/KT) (MB)    (FT/S) (FT/S/D)
5E ST. MARYS GA  0421      73                N/A     1/10
FRYING PAN BUOY  0500   70 70   80/  8/ 10 1015.6R
BUOY 41025       0450   59 75   20/ 14/ 17 1016.7R   4/ 5   2/ 50/ 9
CAPE LOOKOUT NC  0500   65      80/  8/  8 1016.0R
BUOY 41002       0450   72 71   30/ 10/ 12 1015.3R   3/ 6   3/270/ 6
BUOY 41010       0420   76 77  190/  6/  8 1015.9R
ST AUGUSTINE FL  0500   73 72  220/  5/  7 1015.9F


$$



USA.gov is the U.S. government's official web portal to all federal, state and local government web resources and services.